| time (UTC) | temp C | wind direction | speed KPH | gust KPH | rain 1hr cm | rain 24hr cm | rain mn cm | humidity % | barometer mb |
| 20260504215107 | 26 | 358 | 8.0 | 11.3 | 0.00 | 0.00 | 0.00 | 89 | 1008.8 |
| 20260504214602 | 26 | 346 | 9.7 | 11.3 | 0.00 | 0.00 | 0.00 | 90 | 1008.8 |
| 20260504214059 | 26 | 13 | 8.0 | 9.7 | 0.00 | 0.00 | 0.00 | 90 | 1009.0 |
| 20260504213555 | 26 | 347 | 9.7 | 11.3 | 0.00 | 0.00 | 0.00 | 90 | 1008.8 |
| 20260504213052 | 26 | 357 | 9.7 | 12.9 | 0.00 | 0.00 | 0.00 | 90 | 1008.7 |
| 20260504212548 | 26 | 349 | 11.3 | 14.5 | 0.00 | 0.00 | 0.00 | 90 | 1008.7 |
| 20260504212046 | 27 | 348 | 9.7 | 12.9 | 0.00 | 0.00 | 0.00 | 90 | 1008.7 |
| 20260504211543 | 27 | 344 | 11.3 | 12.9 | 0.00 | 0.00 | 0.00 | 91 | 1008.7 |
| 20260504211039 | 27 | 344 | 11.3 | 11.3 | 0.00 | 0.00 | 0.00 | 91 | 1008.8 |
| 20260504210536 | 27 | 352 | 11.3 | 11.3 | 0.00 | 0.00 | 0.00 | 91 | 1008.8 |
| 20260504210033 | 27 | 354 | 11.3 | 11.3 | 0.00 | 0.00 | 0.00 | 91 | 1008.8 |
| 20260504205531 | 27 | 351 | 11.3 | 11.3 | 0.00 | 0.00 | 0.00 | 91 | 1008.8 |
| 20260504205029 | 27 | 0 | 9.7 | 11.3 | 0.00 | 0.00 | 0.00 | 90 | 1008.9 |
| 20260504204527 | 27 | 357 | 11.3 | 11.3 | 0.00 | 0.00 | 0.00 | 90 | 1008.8 |
| 20260504204026 | 27 | 353 | 9.7 | 11.3 | 0.00 | 0.00 | 0.00 | 90 | 1008.6 |
| 20260504203523 | 27 | 10 | 8.0 | 11.3 | 0.00 | 0.00 | 0.00 | 90 | 1008.7 |
| 20260504203020 | 27 | 10 | 9.7 | 11.3 | 0.00 | 0.00 | 0.00 | 91 | 1008.8 |
| 20260504202516 | 27 | 16 | 8.0 | 9.7 | 0.00 | 0.00 | 0.00 | 91 | 1008.7 |
| 20260504202013 | 27 | 5 | 8.0 | 9.7 | 0.00 | 0.00 | 0.00 | 92 | 1008.7 |
| 20260504201510 | 27 | 352 | 8.0 | 11.3 | 0.00 | 0.00 | 0.00 | 92 | 1008.7 |
| 20260504201008 | 27 | 354 | 9.7 | 11.3 | 0.00 | 0.00 | 0.00 | 92 | 1008.9 |
| 20260504200504 | 27 | 355 | 9.7 | 12.9 | 0.00 | 0.00 | 0.00 | 92 | 1008.9 |
| 20260504200000 | 27 | 346 | 11.3 | 12.9 | 0.00 | 0.00 | 0.00 | 92 | 1008.8 |
| 20260504195456 | 27 | 353 | 9.7 | 11.3 | 0.00 | 0.00 | 0.00 | 92 | 1008.8 |
| 20260504194953 | 27 | 359 | 11.3 | 12.9 | 0.00 | 0.00 | 0.00 | 92 | 1009.0 |
| 20260504194449 | 27 | 354 | 11.3 | 11.3 | 0.00 | 0.00 | 0.00 | 91 | 1009.0 |
| 20260504193945 | 27 | 357 | 11.3 | 11.3 | 0.00 | 0.00 | 0.00 | 90 | 1009.0 |
| 20260504193443 | 27 | 355 | 11.3 | 11.3 | 0.00 | 0.00 | 0.00 | 90 | 1009.1 |
| 20260504192941 | 27 | 351 | 9.7 | 12.9 | 0.00 | 0.00 | 0.00 | 90 | 1009.0 |
| 20260504192438 | 27 | 353 | 11.3 | 11.3 | 0.00 | 0.00 | 0.00 | 91 | 1009.3 |
| 20260504191937 | 27 | 0 | 9.7 | 11.3 | 0.00 | 0.00 | 0.00 | 92 | 1009.1 |
| 20260504191435 | 27 | 348 | 11.3 | 11.3 | 0.00 | 0.00 | 0.00 | 92 | 1009.3 |
| 20260504190935 | 27 | 4 | 9.7 | 9.7 | 0.00 | 0.00 | 0.00 | 92 | 1009.2 |
| 20260504190431 | 27 | 339 | 11.3 | 12.9 | 0.00 | 0.00 | 0.00 | 92 | 1009.2 |
| 20260504185928 | 27 | 358 | 9.7 | 12.9 | 0.00 | 0.00 | 0.00 | 92 | 1009.2 |
| 20260504185426 | 27 | 341 | 9.7 | 11.3 | 0.00 | 0.00 | 0.00 | 91 | 1009.3 |
| 20260504184921 | 27 | 349 | 11.3 | 12.9 | 0.00 | 0.00 | 0.00 | 91 | 1009.4 |
| 20260504184417 | 27 | 359 | 11.3 | 12.9 | 0.00 | 0.00 | 0.00 | 91 | 1009.3 |
| 20260504183913 | 27 | 346 | 11.3 | 11.3 | 0.00 | 0.00 | 0.00 | 91 | 1009.4 |
| 20260504183411 | 27 | 343 | 11.3 | 11.3 | 0.00 | 0.00 | 0.00 | 90 | 1009.5 |
| 20260504182909 | 27 | 356 | 9.7 | 14.5 | 0.00 | 0.00 | 0.00 | 90 | 1009.5 |
| 20260504182405 | 27 | 349 | 11.3 | 12.9 | 0.00 | 0.00 | 0.00 | 90 | 1009.7 |
| 20260504181902 | 27 | 13 | 8.0 | 9.7 | 0.00 | 0.00 | 0.00 | 91 | 1009.8 |
| 20260504181359 | 27 | 0 | 9.7 | 11.3 | 0.00 | 0.00 | 0.00 | 91 | 1010.0 |
| 20260504180858 | 27 | 0 | 11.3 | 11.3 | 0.00 | 0.00 | 0.00 | 91 | 1010.0 |
| 20260504180356 | 27 | 358 | 11.3 | 12.9 | 0.00 | 0.00 | 0.00 | 91 | 1009.9 |
| 20260504175854 | 27 | 356 | 8.0 | 11.3 | 0.00 | 0.00 | 0.00 | 91 | 1010.2 |
| 20260504175351 | 27 | 356 | 11.3 | 12.9 | 0.00 | 0.00 | 0.00 | 91 | 1010.3 |
| 20260504174849 | 27 | 345 | 12.9 | 14.5 | 0.00 | 0.00 | 0.00 | 91 | 1010.3 |
| 20260504174346 | 27 | 349 | 11.3 | 12.9 | 0.00 | 0.00 | 0.00 | 89 | 1010.3 |
| 20260504173843 | 27 | 351 | 11.3 | 11.3 | 0.00 | 0.00 | 0.00 | 90 | 1010.4 |
| 20260504173340 | 27 | 357 | 9.7 | 11.3 | 0.00 | 0.00 | 0.00 | 89 | 1010.4 |
| 20260504172837 | 27 | 358 | 9.7 | 11.3 | 0.00 | 0.00 | 0.00 | 89 | 1010.4 |
| 20260504172333 | 27 | 351 | 11.3 | 11.3 | 0.00 | 0.00 | 0.00 | 90 | 1010.6 |
| 20260504171829 | 27 | 2 | 9.7 | 11.3 | 0.00 | 0.00 | 0.00 | 90 | 1010.5 |
| 20260504171326 | 27 | 0 | 9.7 | 11.3 | 0.00 | 0.00 | 0.00 | 90 | 1010.6 |
| 20260504170824 | 27 | 5 | 8.0 | 9.7 | 0.00 | 0.00 | 0.00 | 90 | 1010.8 |
| 20260504170320 | 27 | 349 | 11.3 | 12.9 | 0.00 | 0.00 | 0.00 | 90 | 1010.9 |
| 20260504160239 | 27 | 358 | 9.7 | 11.3 | 0.00 | 0.00 | 0.00 | 88 | 1011.1 |
| 20260504150704 | 27 | 358 | 11.3 | 11.3 | 0.00 | 8.31 | 8.31 | 88 | 1010.8 |
| 20260504150201 | 27 | 0 | 8.0 | 11.3 | 0.00 | 8.31 | 8.31 | 87 | 1010.6 |
| 20260504141130 | 27 | 353 | 9.7 | 9.7 | 0.00 | 8.31 | 8.31 | 88 | 1010.4 |
| 20260504140627 | 27 | 6 | 9.7 | 11.3 | 0.00 | 8.31 | 8.31 | 88 | 1010.5 |
| 20260504140122 | 27 | 7 | 8.0 | 11.3 | 0.00 | 8.31 | 8.31 | 89 | 1010.5 |
| 20260504130551 | 27 | 355 | 9.7 | 11.3 | 0.00 | 8.31 | 8.31 | 90 | 1009.6 |
| 20260504110438 | 27 | 0 | 8.0 | 9.7 | 0.00 | 8.31 | 8.31 | 84 | 1009.0 |
| 20260504100355 | 28 | 16 | 9.7 | 9.7 | 0.00 | 8.31 | 8.31 | 79 | 1009.0 |
| 20260504081748 | 26 | 23 | 8.0 | 14.5 | 0.00 | 8.31 | 8.31 | 87 | 1008.4 |
| 20260504081244 | 26 | 22 | 6.4 | 11.3 | 0.00 | 8.31 | 8.31 | 85 | 1008.2 |
| 20260504080741 | 27 | 335 | 16.1 | 19.3 | 0.00 | 8.31 | 8.31 | 81 | 1008.5 |
| 20260504080237 | 27 | 336 | 14.5 | 19.3 | 0.00 | 8.31 | 8.31 | 81 | 1008.5 |
| 20260504070205 | 32 | 11 | 9.7 | 11.3 | 0.00 | 8.31 | 8.31 | 74 | 1009.0 |
| 20260504060125 | 31 | 9 | 9.7 | 11.3 | 0.00 | 8.31 | 8.31 | 78 | 1010.1 |
| 20260504050554 | 29 | 10 | 9.7 | 9.7 | 0.00 | 8.31 | 8.31 | 85 | 1011.9 |
| 20260504045547 | 28 | 10 | 8.0 | 9.7 | 0.00 | 8.31 | 8.31 | 87 | 1012.1 |
| 20260504045042 | 28 | 15 | 8.0 | 11.3 | 0.00 | 8.31 | 8.31 | 88 | 1011.8 |
| 20260504044540 | 28 | 4 | 9.7 | 9.7 | 0.00 | 8.31 | 8.31 | 89 | 1011.8 |
| 20260504044037 | 28 | 8 | 8.0 | 9.7 | 0.00 | 8.31 | 8.31 | 90 | 1011.8 |
| 20260504043534 | 28 | 6 | 9.7 | 11.3 | 0.00 | 8.31 | 8.31 | 92 | 1011.9 |
| 20260504043032 | 27 | 6 | 9.7 | 11.3 | 0.00 | 8.31 | 8.31 | 94 | 1011.7 |
| 20260504042528 | 27 | 10 | 8.0 | 9.7 | 0.00 | 8.31 | 8.31 | 95 | 1011.7 |
| 20260504042025 | 27 | 359 | 9.7 | 12.9 | 0.00 | 8.31 | 8.31 | 95 | 1011.9 |
| 20260504041521 | 27 | 352 | 12.9 | 16.1 | 0.00 | 8.31 | 8.31 | 96 | 1012.0 |
| 20260504041017 | 27 | 356 | 11.3 | 12.9 | 0.00 | 8.31 | 8.31 | 96 | 1012.0 |
| 20260504040515 | 27 | 3 | 8.0 | 9.7 | 0.00 | 8.31 | 8.31 | 96 | 1012.3 |
| 20260504040012 | 27 | 358 | 11.3 | 11.3 | 0.05 | 8.31 | 8.31 | 95 | 1012.4 |
| 20260504035509 | 26 | 350 | 12.9 | 14.5 | 0.05 | 8.31 | 8.31 | 94 | 1012.3 |
| 20260504035005 | 26 | 354 | 9.7 | 14.5 | 0.00 | 8.31 | 8.31 | 95 | 1012.2 |
| 20260504034502 | 26 | 351 | 11.3 | 12.9 | 0.00 | 8.31 | 8.31 | 96 | 1012.3 |
| 20260504033959 | 26 | 356 | 9.7 | 9.7 | 0.13 | 8.31 | 8.31 | 96 | 1012.2 |
| 20260504033457 | 26 | 12 | 8.0 | 9.7 | 1.68 | 8.31 | 8.31 | 96 | 1012.0 |
| 20260504032954 | 26 | 0 | 8.0 | 11.3 | 3.73 | 8.28 | 8.28 | 95 | 1012.1 |
| 20260504032451 | 25 | 347 | 11.3 | 11.3 | 1.02 | 7.82 | 7.82 | 93 | 1011.9 |
| 20260504031948 | 26 | 351 | 12.9 | 12.9 | 0.71 | 7.65 | 7.65 | 91 | 1011.8 |
| 20260504031445 | 25 | 345 | 11.3 | 12.9 | 10.79 | 7.62 | 7.62 | 92 | 1011.7 |
| 20260504030941 | 25 | 357 | 9.7 | 14.5 | 21.41 | 7.39 | 7.39 | 94 | 1011.9 |
| 20260504030438 | 26 | 337 | 14.5 | 17.7 | 22.25 | 5.66 | 5.66 | 94 | 1012.0 |
| 20260504025934 | 27 | 22 | 8.0 | 9.7 | 20.45 | 3.58 | 3.58 | 92 | 1012.1 |
| 20260504025431 | 28 | 32 | 8.0 | 9.7 | 10.13 | 1.70 | 1.70 | 88 | 1012.0 |
| 20260504024928 | 29 | 16 | 8.0 | 11.3 | 0.53 | 0.10 | 0.10 | 82 | 1012.1 |
| 20260504024425 | 29 | 4 | 8.0 | 9.7 | 0.00 | 0.00 | 0.00 | 81 | 1011.9 |
| 20260504023922 | 29 | 13 | 9.7 | 9.7 | 0.00 | 0.00 | 0.00 | 81 | 1011.8 |
| 20260504023419 | 29 | 9 | 9.7 | 9.7 | 0.00 | 0.00 | 0.00 | 80 | 1011.7 |
| 20260504022914 | 29 | 11 | 8.0 | 11.3 | 0.00 | 0.00 | 0.00 | 80 | 1011.6 |
| 20260504022411 | 30 | 10 | 8.0 | 11.3 | 0.00 | 0.00 | 0.00 | 80 | 1011.6 |
| 20260504021908 | 30 | 1 | 9.7 | 9.7 | 0.00 | 0.00 | 0.00 | 80 | 1011.6 |
| 20260504021405 | 30 | 5 | 9.7 | 9.7 | 0.00 | 0.00 | 0.00 | 79 | 1011.6 |
| 20260504020902 | 30 | 7 | 9.7 | 9.7 | 0.00 | 0.00 | 0.00 | 80 | 1011.5 |
| 20260504020359 | 29 | 8 | 8.0 | 9.7 | 0.00 | 0.00 | 0.00 | 81 | 1011.5 |
| 20260504015855 | 29 | 8 | 9.7 | 9.7 | 0.00 | 0.00 | 0.00 | 82 | 1011.5 |
| 20260504015351 | 29 | 7 | 8.0 | 9.7 | 0.00 | 0.00 | 0.00 | 82 | 1011.7 |
| 20260504014847 | 29 | 13 | 9.7 | 11.3 | 0.00 | 0.00 | 0.00 | 82 | 1011.5 |
| 20260504014343 | 28 | 353 | 9.7 | 11.3 | 0.00 | 0.00 | 0.00 | 83 | 1011.4 |
| 20260504013841 | 28 | 355 | 9.7 | 12.9 | 0.00 | 0.00 | 0.00 | 83 | 1011.3 |
| 20260504013339 | 28 | 354 | 11.3 | 12.9 | 0.00 | 0.00 | 0.00 | 83 | 1011.3 |
| 20260504012835 | 28 | 0 | 9.7 | 11.3 | 0.00 | 0.00 | 0.00 | 84 | 1011.4 |
| 20260504012333 | 28 | 3 | 8.0 | 11.3 | 0.00 | 0.00 | 0.00 | 84 | 1011.3 |
| 20260504011830 | 28 | 348 | 12.9 | 12.9 | 0.00 | 0.00 | 0.00 | 84 | 1011.2 |
| 20260504011327 | 28 | 352 | 11.3 | 12.9 | 0.00 | 0.00 | 0.00 | 83 | 1011.1 |
| 20260504010822 | 29 | 8 | 8.0 | 9.7 | 0.00 | 0.00 | 0.00 | 82 | 1011.3 |
| 20260504010318 | 29 | 11 | 9.7 | 9.7 | 0.00 | 0.00 | 0.00 | 82 | 1011.1 |
| 20260504005815 | 29 | 11 | 8.0 | 9.7 | 0.00 | 0.00 | 0.00 | 83 | 1010.9 |
| 20260504005312 | 28 | 8 | 9.7 | 9.7 | 0.00 | 0.00 | 0.00 | 84 | 1010.9 |
| 20260504004810 | 28 | 359 | 8.0 | 11.3 | 0.00 | 0.00 | 0.00 | 84 | 1010.6 |
| 20260504004307 | 28 | 7 | 8.0 | 9.7 | 0.00 | 0.00 | 0.00 | 84 | 1010.6 |
| 20260504003803 | 28 | 0 | 9.7 | 9.7 | 0.00 | 0.00 | 0.00 | 85 | 1010.5 |
| 20260504003300 | 28 | 6 | 9.7 | 9.7 | 0.00 | 0.00 | 0.00 | 86 | 1010.6 |
| 20260504002757 | 28 | 10 | 9.7 | 9.7 | 0.00 | 0.00 | 0.00 | 87 | 1010.6 |
| 20260504002254 | 28 | 357 | 8.0 | 11.3 | 0.00 | 0.00 | 0.00 | 87 | 1010.5 |
| 20260504001752 | 27 | 1 | 8.0 | 11.3 | 0.00 | 0.00 | 0.00 | 87 | 1010.5 |
| 20260504001248 | 27 | 351 | 9.7 | 11.3 | 0.00 | 0.00 | 0.00 | 88 | 1010.2 |
| 20260504000745 | 27 | 353 | 9.7 | 11.3 | 0.00 | 0.00 | 0.00 | 88 | 1010.1 |
| 20260504000242 | 27 | 355 | 9.7 | 11.3 | 0.00 | 0.00 | 0.00 | 88 | 1010.2 |
| 20260503235740 | 27 | 350 | 11.3 | 11.3 | 0.00 | 0.00 | 0.00 | 88 | 1010.2 |
| 20260503235237 | 27 | 348 | 11.3 | 11.3 | 0.00 | 0.00 | 0.00 | 88 | 1010.0 |
| 20260503234735 | 27 | 351 | 9.7 | 12.9 | 0.00 | 0.00 | 0.00 | 88 | 1010.0 |
| 20260503234233 | 27 | 347 | 11.3 | 12.9 | 0.00 | 0.00 | 0.00 | 88 | 1010.1 |
| 20260503233729 | 27 | 353 | 11.3 | 11.3 | 0.00 | 0.00 | 0.00 | 88 | 1010.1 |
| 20260503233225 | 27 | 0 | 11.3 | 11.3 | 0.00 | 0.00 | 0.00 | 88 | 1010.0 |
| 20260503232722 | 27 | 354 | 11.3 | 12.9 | 0.00 | 0.00 | 0.00 | 88 | 1010.0 |
| 20260503232219 | 27 | 350 | 11.3 | 11.3 | 0.00 | 0.00 | 0.00 | 88 | 1009.8 |
| 20260503231718 | 27 | 356 | 9.7 | 11.3 | 0.00 | 0.00 | 0.00 | 89 | 1009.6 |
| 20260503231214 | 27 | 0 | 9.7 | 11.3 | 0.00 | 0.00 | 0.00 | 89 | 1009.7 |
| 20260503230710 | 27 | 0 | 9.7 | 11.3 | 0.00 | 0.00 | 0.00 | 88 | 1009.7 |
| 20260503230208 | 27 | 9 | 8.0 | 9.7 | 0.00 | 0.00 | 0.00 | 88 | 1009.6 |
| 20260503225706 | 27 | 8 | 9.7 | 9.7 | 0.00 | 0.00 | 0.00 | 88 | 1009.5 |
| 20260503225205 | 27 | 7 | 8.0 | 9.7 | 0.00 | 0.00 | 0.00 | 88 | 1009.5 |
| 20260503224703 | 27 | 6 | 9.7 | 9.7 | 0.00 | 0.00 | 0.00 | 88 | 1009.5 |
| 20260503224200 | 27 | 2 | 9.7 | 11.3 | 0.00 | 0.00 | 0.00 | 87 | 1009.3 |
| 20260503223658 | 27 | 357 | 8.0 | 11.3 | 0.00 | 0.00 | 0.00 | 87 | 1009.6 |
| 20260503223155 | 27 | 354 | 9.7 | 11.3 | 0.00 | 0.00 | 0.00 | 87 | 1009.4 |
| 20260503222652 | 27 | 10 | 8.0 | 9.7 | 0.00 | 0.00 | 0.00 | 87 | 1009.2 |
| 20260503222149 | 27 | 2 | 8.0 | 9.7 | 0.00 | 0.00 | 0.00 | 87 | 1009.2 |
| 20260503221648 | 27 | 358 | 9.7 | 11.3 | 0.00 | 0.00 | 0.00 | 87 | 1009.3 |
| 20260503221145 | 27 | 6 | 9.7 | 11.3 | 0.00 | 0.00 | 0.00 | 87 | 1009.2 |
| 20260503220641 | 27 | 1 | 9.7 | 11.3 | 0.00 | 0.00 | 0.00 | 87 | 1009.2 |
| 20260503220138 | 27 | 11 | 9.7 | 9.7 | 0.00 | 0.00 | 0.00 | 87 | 1009.1 |
| 20260503215635 | 27 | 5 | 9.7 | 9.7 | 0.00 | 0.00 | 0.00 | 87 | 1009.2 |